Location: Newark
(46.9000°N, 28.3500°E)
Time: 20:17:31
(UTC+00:00)

Explorer 7 - Pass Details

Date: 02 September 2019
Orbit: 485 x 680 km, 50.3° (Epoch: 22 October)

Event Time Altitude Azimuth Distance (km) Brightness Sun altitude
Rises 10:26:03 0° 288° (WNW) 2,957 10.5 50.8°
Reaches altitude 10° 10:28:59 10° 270° (W) 2,009 9.9 50.7°
Maximum altitude 10:32:12 19° 226° (SW) 1,473 9.8 50.6°
Drops below altitude 10° 10:35:17 10° 181° (S) 1,915 10.5 50.5°
Sets 10:38:00 0° 163° (SSE) 2,769 10.9 50.5°
